TimeAKST,TemperatureF,Dew PointF,Humidity,Sea Level PressureIn,VisibilityMPH,Wind Direction,Wind SpeedMPH,Gust SpeedMPH,PrecipitationIn,Events,Conditions,WindDirDegrees,DateUTC
12:16 AM,35.6,33.8,93,29.36,5.0,NW,6.9,-,N/A,,Overcast,320,2011-11-11 09:16:00
12:36 AM,37.4,33.8,87,29.37,4.0,NW,6.9,-,N/A,,Overcast,320,2011-11-11 09:36:00
12:56 AM,35.6,33.8,93,29.38,9.0,NNW,5.8,-,N/A,,Mostly Cloudy,330,2011-11-11 09:56:00
1:16 AM,35.6,33.8,93,29.39,8.0,NW,4.6,-,N/A,,Overcast,310,2011-11-11 10:16:00
1:36 AM,35.6,33.8,93,29.40,7.0,Calm,Calm,-,N/A,,Mostly Cloudy,0,2011-11-11 10:36:00
1:56 AM,35.6,33.8,93,29.41,1.0,Calm,Calm,-,N/A,,Overcast,0,2011-11-11 10:56:00
2:16 AM,35.6,32.0,87,29.43,0.8,Calm,Calm,-,N/A,,Overcast,0,2011-11-11 11:16:00
2:36 AM,33.8,30.2,87,29.44,1.2,Calm,Calm,-,N/A,,Overcast,0,2011-11-11 11:36:00
2:56 AM,33.8,30.2,87,29.45,1.8,WSW,6.9,-,N/A,,Overcast,240,2011-11-11 11:56:00
3:16 AM,33.8,30.2,87,29.45,1.2,Calm,Calm,-,N/A,,Overcast,0,2011-11-11 12:16:00
3:36 AM,32.0,30.2,93,29.46,5.0,Calm,Calm,-,N/A,,Partly Cloudy,0,2011-11-11 12:36:00
3:56 AM,30.2,28.4,93,29.47,7.0,WSW,3.5,-,N/A,,Clear,240,2011-11-11 12:56:00
4:16 AM,30.2,28.4,93,29.48,10.0,Calm,Calm,-,N/A,,Clear,0,2011-11-11 13:16:00
4:36 AM,30.2,28.4,93,29.49,10.0,Calm,Calm,-,N/A,,Clear,0,2011-11-11 13:36:00
4:56 AM,30.2,28.4,93,29.50,5.0,Calm,Calm,-,N/A,,Clear,0,2011-11-11 13:56:00
5:16 AM,30.2,28.4,93,29.51,10.0,Calm,Calm,-,N/A,,Clear,0,2011-11-11 14:16:00
5:36 AM,30.2,28.4,93,29.51,10.0,Calm,Calm,-,N/A,,Clear,0,2011-11-11 14:36:00
5:56 AM,30.2,26.6,86,29.52,10.0,WSW,3.5,-,N/A,,Clear,240,2011-11-11 14:56:00
6:16 AM,30.2,28.4,93,29.53,10.0,Calm,Calm,-,N/A,,Clear,0,2011-11-11 15:16:00
6:36 AM,30.2,28.4,93,29.54,10.0,NNE,4.6,-,N/A,,Clear,20,2011-11-11 15:36:00
6:56 AM,30.2,26.6,86,29.55,10.0,Calm,Calm,-,N/A,,Clear,0,2011-11-11 15:56:00
7:16 AM,28.4,26.6,93,29.56,10.0,Calm,Calm,-,N/A,,Clear,0,2011-11-11 16:16:00
7:36 AM,28.4,26.6,93,29.56,10.0,Calm,Calm,-,N/A,,Clear,0,2011-11-11 16:36:00
7:56 AM,28.4,26.6,93,29.56,10.0,Calm,Calm,-,N/A,,Clear,0,2011-11-11 16:56:00
8:16 AM,28.4,24.8,86,29.57,10.0,Calm,Calm,-,N/A,,Clear,0,2011-11-11 17:16:00
8:36 AM,28.4,26.6,93,29.58,10.0,Calm,Calm,-,N/A,,Clear,0,2011-11-11 17:36:00
8:56 AM,28.4,26.6,93,29.59,10.0,Calm,Calm,-,N/A,,Clear,0,2011-11-11 17:56:00
9:16 AM,30.2,28.4,93,29.60,10.0,Calm,Calm,-,N/A,,Clear,0,2011-11-11 18:16:00
9:36 AM,30.2,28.4,93,29.61,10.0,Calm,Calm,-,N/A,,Clear,0,2011-11-11 18:36:00
9:56 AM,32.0,30.2,93,29.61,10.0,Calm,Calm,-,N/A,,Clear,0,2011-11-11 18:56:00
10:36 AM,33.8,32.0,93,29.61,10.0,Calm,Calm,-,N/A,,Clear,0,2011-11-11 19:36:00
10:56 AM,35.6,33.8,93,29.63,10.0,Calm,Calm,-,N/A,,Clear,0,2011-11-11 19:56:00
11:16 AM,35.6,33.8,93,29.64,10.0,Calm,Calm,-,N/A,,Clear,0,2011-11-11 20:16:00
11:36 AM,35.6,33.8,93,29.64,10.0,Calm,Calm,-,N/A,,Partly Cloudy,0,2011-11-11 20:36:00
11:56 AM,35.6,33.8,93,29.64,10.0,Calm,Calm,-,N/A,,Partly Cloudy,0,2011-11-11 20:56:00
12:16 PM,37.4,33.8,87,29.65,10.0,Calm,Calm,-,N/A,,Clear,0,2011-11-11 21:16:00
12:36 PM,37.4,33.8,87,29.64,10.0,Calm,Calm,-,N/A,,Clear,0,2011-11-11 21:36:00
12:56 PM,37.4,33.8,87,29.64,10.0,Calm,Calm,-,N/A,,Clear,0,2011-11-11 21:56:00
1:16 PM,35.6,33.8,93,29.64,10.0,Calm,Calm,-,N/A,,Clear,0,2011-11-11 22:16:00
1:36 PM,35.6,33.8,93,29.63,10.0,Calm,Calm,-,N/A,,Clear,0,2011-11-11 22:36:00
1:56 PM,35.6,33.8,93,29.62,10.0,Calm,Calm,-,N/A,,Clear,0,2011-11-11 22:56:00
2:36 PM,33.8,30.2,87,29.61,10.0,Calm,Calm,-,N/A,,Clear,0,2011-11-11 23:36:00
2:56 PM,33.8,30.2,87,29.61,2.5,Calm,Calm,-,N/A,,Clear,0,2011-11-11 23:56:00
3:16 PM,33.8,30.2,87,29.61,5.0,Calm,Calm,-,N/A,,Clear,0,2011-11-12 00:16:00
3:36 PM,33.8,30.2,87,29.61,2.0,Calm,Calm,-,N/A,,Clear,0,2011-11-12 00:36:00
3:56 PM,32.0,30.2,93,29.60,5.0,Calm,Calm,-,N/A,,Clear,0,2011-11-12 00:56:00
4:16 PM,32.0,28.4,87,29.59,10.0,Calm,Calm,-,N/A,,Clear,0,2011-11-12 01:16:00
4:36 PM,32.0,28.4,87,29.59,10.0,Calm,Calm,-,N/A,,Scattered Clouds,0,2011-11-12 01:36:00
4:56 PM,30.2,28.4,93,29.57,10.0,Calm,Calm,-,N/A,,Mostly Cloudy,0,2011-11-12 01:56:00
5:16 PM,32.0,28.4,87,29.56,10.0,Calm,Calm,-,N/A,,Overcast,0,2011-11-12 02:16:00
5:36 PM,32.0,28.4,87,29.55,10.0,Calm,Calm,-,N/A,,Overcast,0,2011-11-12 02:36:00
5:56 PM,32.0,30.2,93,29.53,10.0,Calm,Calm,-,N/A,,Mostly Cloudy,0,2011-11-12 02:56:00
6:16 PM,33.8,30.2,87,29.51,10.0,Calm,Calm,-,N/A,,Scattered Clouds,0,2011-11-12 03:16:00
6:36 PM,33.8,30.2,87,29.51,10.0,Calm,Calm,-,N/A,,Mostly Cloudy,0,2011-11-12 03:36:00
6:56 PM,32.0,30.2,93,29.50,10.0,Calm,Calm,-,N/A,,Overcast,0,2011-11-12 03:56:00
7:16 PM,33.8,30.2,87,29.49,10.0,SSE,4.6,-,N/A,,Overcast,160,2011-11-12 04:16:00
7:36 PM,35.6,30.2,81,29.48,10.0,South,5.8,-,N/A,,Overcast,170,2011-11-12 04:36:00
7:56 PM,35.6,28.4,75,29.45,10.0,South,4.6,-,N/A,,Overcast,170,2011-11-12 04:56:00
8:16 PM,35.6,28.4,75,29.43,10.0,SE,5.8,-,N/A,,Overcast,130,2011-11-12 05:16:00
8:36 PM,35.6,28.4,75,29.42,5.0,SSE,5.8,-,N/A,,Overcast,150,2011-11-12 05:36:00
8:56 PM,35.6,28.4,75,29.39,7.0,SSE,3.5,-,N/A,,Overcast,160,2011-11-12 05:56:00
9:16 PM,33.8,30.2,87,29.39,3.0,SSE,8.1,-,N/A,,Overcast,150,2011-11-12 06:16:00
9:36 PM,33.8,30.2,87,29.38,2.0,SE,6.9,-,N/A,,Overcast,140,2011-11-12 06:36:00
9:56 PM,33.8,30.2,87,29.35,3.0,ESE,8.1,-,N/A,,Overcast,120,2011-11-12 06:56:00
10:16 PM,33.8,30.2,87,29.31,5.0,SE,6.9,-,N/A,,Overcast,140,2011-11-12 07:16:00
10:36 PM,33.8,30.2,87,29.30,5.0,SE,8.1,-,N/A,,Overcast,130,2011-11-12 07:36:00
10:56 PM,33.8,30.2,87,29.27,7.0,SE,9.2,16.1,N/A,,Overcast,140,2011-11-12 07:56:00
11:16 PM,33.8,30.2,87,29.24,9.0,SE,9.2,-,N/A,,Overcast,130,2011-11-12 08:16:00
11:36 PM,35.6,32.0,87,29.21,10.0,ESE,12.7,16.1,N/A,,Overcast,120,2011-11-12 08:36:00
11:56 PM,35.6,30.2,81,29.17,10.0,ESE,12.7,-,N/A,,Overcast,120,2011-11-12 08:56:00